Year,Month,Day,Hour,Minute,Value (Times are PST for temperature in C)
2015,02,24,00,00,3.20
2015,02,24,00,01,3.10
2015,02,24,00,02,3.10
2015,02,24,00,03,3.10
2015,02,24,00,04,3.10
2015,02,24,00,05,3.10
2015,02,24,00,06,3.10
2015,02,24,00,07,3.10
2015,02,24,00,08,3.10
2015,02,24,00,09,3.10
2015,02,24,00,10,3.00
2015,02,24,00,11,3.00
2015,02,24,00,12,3.00
2015,02,24,00,13,3.00
2015,02,24,00,14,3.00
2015,02,24,00,15,3.00
2015,02,24,00,16,3.00
2015,02,24,00,17,3.00
2015,02,24,00,18,3.00
2015,02,24,00,19,3.00
2015,02,24,00,20,2.90
2015,02,24,00,21,2.90
2015,02,24,00,22,2.90
2015,02,24,00,23,2.90
2015,02,24,00,24,2.90
2015,02,24,00,25,2.90
2015,02,24,00,26,2.90
2015,02,24,00,27,2.90
2015,02,24,00,28,2.90
2015,02,24,00,29,2.90
2015,02,24,00,30,3.00
2015,02,24,00,31,3.00
2015,02,24,00,32,3.00
2015,02,24,00,33,3.00
2015,02,24,00,34,3.00
2015,02,24,00,35,3.00
2015,02,24,00,36,3.00
2015,02,24,00,37,3.00
2015,02,24,00,38,3.10
2015,02,24,00,39,3.10
2015,02,24,00,40,3.10
2015,02,24,00,41,3.10
2015,02,24,00,42,3.10
2015,02,24,00,43,3.10
2015,02,24,00,44,3.10
2015,02,24,00,45,3.10
2015,02,24,00,46,3.10
2015,02,24,00,47,3.10
2015,02,24,00,48,3.20
2015,02,24,00,49,3.10
2015,02,24,00,50,3.10
2015,02,24,00,51,3.10
2015,02,24,00,52,3.10
2015,02,24,00,53,3.10
2015,02,24,00,54,3.10
2015,02,24,00,55,3.10
2015,02,24,00,56,3.10
2015,02,24,00,57,3.10
2015,02,24,00,58,3.10
2015,02,24,00,59,3.10
2015,02,24,01,00,3.10
2015,02,24,01,01,3.10
2015,02,24,01,02,3.10
2015,02,24,01,03,3.10
2015,02,24,01,04,3.20
2015,02,24,01,05,3.20
2015,02,24,01,06,3.20
2015,02,24,01,07,3.20
2015,02,24,01,08,3.20
2015,02,24,01,09,3.20
2015,02,24,01,10,3.20
2015,02,24,01,11,3.20
2015,02,24,01,12,3.20
2015,02,24,01,13,3.20
2015,02,24,01,14,3.20
2015,02,24,01,15,3.20
2015,02,24,01,16,3.20
2015,02,24,01,17,3.20
2015,02,24,01,18,3.20
2015,02,24,01,19,3.20
2015,02,24,01,20,3.20
2015,02,24,01,21,3.20
2015,02,24,01,22,3.20
2015,02,24,01,23,3.20
2015,02,24,01,24,3.20
2015,02,24,01,25,3.20
2015,02,24,01,26,3.20
2015,02,24,01,27,3.20
2015,02,24,01,28,3.20
2015,02,24,01,29,3.20
2015,02,24,01,30,3.20
2015,02,24,01,31,3.20
2015,02,24,01,32,3.20
2015,02,24,01,33,3.10
2015,02,24,01,34,3.10
2015,02,24,01,35,3.10
2015,02,24,01,36,3.10
2015,02,24,01,37,3.10
2015,02,24,01,38,3.10
2015,02,24,01,39,3.10
2015,02,24,01,40,3.10
2015,02,24,01,41,3.10
2015,02,24,01,42,3.10
2015,02,24,01,43,3.10
2015,02,24,01,44,3.10
2015,02,24,01,45,3.10
2015,02,24,01,46,3.10
2015,02,24,01,47,3.10
2015,02,24,01,48,3.00
2015,02,24,01,49,3.00
2015,02,24,01,50,3.00
2015,02,24,01,51,3.00
2015,02,24,01,52,3.00
2015,02,24,01,53,3.00
2015,02,24,01,54,3.00
2015,02,24,01,55,3.00
2015,02,24,01,56,3.00
2015,02,24,01,57,3.00
2015,02,24,01,58,3.00
2015,02,24,01,59,3.00
2015,02,24,02,00,3.00
2015,02,24,02,01,3.00
2015,02,24,02,02,2.90
2015,02,24,02,03,2.90
2015,02,24,02,04,2.90
2015,02,24,02,05,2.90
2015,02,24,02,06,2.90
2015,02,24,02,07,2.90
2015,02,24,02,08,2.90
2015,02,24,02,09,2.90
2015,02,24,02,10,2.90
2015,02,24,02,11,2.90
2015,02,24,02,12,2.80
2015,02,24,02,13,2.80
2015,02,24,02,14,2.80
2015,02,24,02,15,2.80
2015,02,24,02,16,2.80
2015,02,24,02,17,2.80
2015,02,24,02,18,2.90
2015,02,24,02,19,2.90
2015,02,24,02,20,2.90
2015,02,24,02,21,2.90
2015,02,24,02,22,2.80
2015,02,24,02,23,2.80
2015,02,24,02,24,2.80
2015,02,24,02,25,2.80
2015,02,24,02,26,2.80
2015,02,24,02,27,2.70
2015,02,24,02,28,2.70
2015,02,24,02,29,2.70
2015,02,24,02,30,2.70
2015,02,24,02,31,2.70
2015,02,24,02,32,2.70
2015,02,24,02,33,2.70
2015,02,24,02,34,2.70
2015,02,24,02,35,2.70
2015,02,24,02,36,2.70
2015,02,24,02,37,2.70
2015,02,24,02,38,2.70
2015,02,24,02,39,2.70
2015,02,24,02,40,2.70
2015,02,24,02,41,2.70
2015,02,24,02,42,2.70
2015,02,24,02,43,2.70
2015,02,24,02,44,2.70
2015,02,24,02,45,2.70
2015,02,24,02,46,2.70
2015,02,24,02,47,2.70
2015,02,24,02,48,2.70
2015,02,24,02,49,2.70
2015,02,24,02,50,2.60
2015,02,24,02,51,2.60
2015,02,24,02,52,2.60
2015,02,24,02,53,2.60
2015,02,24,02,54,2.60
2015,02,24,02,55,2.60
2015,02,24,02,56,2.60
2015,02,24,02,57,2.60
2015,02,24,02,58,2.60
2015,02,24,02,59,2.60
2015,02,24,03,00,2.60
2015,02,24,03,01,2.60
2015,02,24,03,02,2.60
2015,02,24,03,03,2.60
2015,02,24,03,04,2.60
2015,02,24,03,05,2.60
2015,02,24,03,06,2.60
2015,02,24,03,07,2.60
2015,02,24,03,08,2.60
2015,02,24,03,09,2.60
2015,02,24,03,10,2.60
2015,02,24,03,11,2.50
2015,02,24,03,12,2.50
2015,02,24,03,13,2.50
2015,02,24,03,14,2.50
2015,02,24,03,15,2.50
2015,02,24,03,16,2.50
2015,02,24,03,17,2.50
2015,02,24,03,18,2.50
2015,02,24,03,19,2.50
2015,02,24,03,20,2.50
2015,02,24,03,21,2.50
2015,02,24,03,22,2.50
2015,02,24,03,23,2.50
2015,02,24,03,24,2.40
2015,02,24,03,25,2.40
2015,02,24,03,26,2.40
2015,02,24,03,27,2.40
2015,02,24,03,28,2.40
2015,02,24,03,29,2.40
2015,02,24,03,30,2.40
2015,02,24,03,31,2.40
2015,02,24,03,32,2.40
2015,02,24,03,33,2.40
2015,02,24,03,34,2.40
2015,02,24,03,35,2.40
2015,02,24,03,36,2.40
2015,02,24,03,37,2.40
2015,02,24,03,38,2.40
2015,02,24,03,39,2.40
2015,02,24,03,40,2.40
2015,02,24,03,41,2.40
2015,02,24,03,42,2.40
2015,02,24,03,43,2.40
2015,02,24,03,44,2.40
2015,02,24,03,45,2.40
2015,02,24,03,46,2.30
2015,02,24,03,47,2.30
2015,02,24,03,48,2.30
2015,02,24,03,49,2.30
2015,02,24,03,50,2.30
2015,02,24,03,51,2.30
2015,02,24,03,52,2.30
2015,02,24,03,53,2.30
2015,02,24,03,54,2.30
2015,02,24,03,55,2.30
2015,02,24,03,56,2.30
2015,02,24,03,57,2.30
2015,02,24,03,58,2.30
2015,02,24,03,59,2.30
2015,02,24,04,00,2.30
2015,02,24,04,01,2.20
2015,02,24,04,02,2.20
2015,02,24,04,03,2.20
2015,02,24,04,04,2.20
2015,02,24,04,05,2.10
2015,02,24,04,06,2.10
2015,02,24,04,07,2.10
2015,02,24,04,08,2.10
2015,02,24,04,09,2.10
2015,02,24,04,10,2.00
2015,02,24,04,11,2.00
2015,02,24,04,12,2.00
2015,02,24,04,13,2.00
2015,02,24,04,14,2.00
2015,02,24,04,15,2.00
2015,02,24,04,16,2.00
2015,02,24,04,17,2.00
2015,02,24,04,18,2.10
2015,02,24,04,19,2.10
2015,02,24,04,20,2.10
2015,02,24,04,21,2.10
2015,02,24,04,22,2.10
2015,02,24,04,23,2.10
2015,02,24,04,24,2.20
2015,02,24,04,25,2.20
2015,02,24,04,26,2.20
2015,02,24,04,27,2.20
2015,02,24,04,28,2.20
2015,02,24,04,29,2.30
2015,02,24,04,30,2.30
2015,02,24,04,31,2.30
2015,02,24,04,32,2.40
2015,02,24,04,33,2.40
2015,02,24,04,34,2.40
2015,02,24,04,35,2.40
2015,02,24,04,36,2.40
2015,02,24,04,37,2.40
2015,02,24,04,38,2.40
2015,02,24,04,39,2.40
2015,02,24,04,40,2.40
2015,02,24,04,41,2.40
2015,02,24,04,42,2.40
2015,02,24,04,43,2.40
2015,02,24,04,44,2.40
2015,02,24,04,45,2.40
2015,02,24,04,46,2.40
2015,02,24,04,47,2.40
2015,02,24,04,48,2.40
2015,02,24,04,49,2.40
2015,02,24,04,50,2.40
2015,02,24,04,51,2.40
2015,02,24,04,52,2.40
2015,02,24,04,53,2.40
2015,02,24,04,54,2.40
2015,02,24,04,55,2.30
2015,02,24,04,56,2.30
2015,02,24,04,57,2.30
2015,02,24,04,58,2.30
2015,02,24,04,59,2.30
2015,02,24,05,00,2.30
2015,02,24,05,01,2.30
2015,02,24,05,02,2.30
2015,02,24,05,03,2.30
2015,02,24,05,04,2.30
2015,02,24,05,05,2.30
2015,02,24,05,06,2.20
2015,02,24,05,07,2.20
2015,02,24,05,08,2.20
2015,02,24,05,09,2.10
2015,02,24,05,10,2.10
2015,02,24,05,11,2.10
2015,02,24,05,12,2.00
2015,02,24,05,13,2.00
2015,02,24,05,14,2.00
2015,02,24,05,15,1.90
2015,02,24,05,16,1.90
2015,02,24,05,17,1.90
2015,02,24,05,18,1.90
2015,02,24,05,19,1.90
2015,02,24,05,20,1.90
2015,02,24,05,21,1.80
2015,02,24,05,22,1.80
2015,02,24,05,23,1.80
2015,02,24,05,24,1.80
2015,02,24,05,25,1.80
2015,02,24,05,26,1.80
2015,02,24,05,27,1.80
2015,02,24,05,28,1.70
2015,02,24,05,29,1.70
2015,02,24,05,30,1.70
2015,02,24,05,31,1.70
2015,02,24,05,32,1.70
2015,02,24,05,33,1.70
2015,02,24,05,34,1.70
2015,02,24,05,35,1.70
2015,02,24,05,36,1.60
2015,02,24,05,37,1.60
2015,02,24,05,38,1.60
2015,02,24,05,39,1.60
2015,02,24,05,40,1.50
2015,02,24,05,41,1.50
2015,02,24,05,42,1.50
2015,02,24,05,43,1.40
2015,02,24,05,44,1.40
2015,02,24,05,45,1.40
2015,02,24,05,46,1.40
2015,02,24,05,47,1.30
2015,02,24,05,48,1.30
2015,02,24,05,49,1.30
2015,02,24,05,50,1.30
2015,02,24,05,51,1.30
2015,02,24,05,52,1.30
2015,02,24,05,53,1.20
2015,02,24,05,54,1.20
2015,02,24,05,55,1.20
2015,02,24,05,56,1.20
2015,02,24,05,57,1.20
2015,02,24,05,58,1.20
2015,02,24,05,59,1.20
2015,02,24,06,00,1.10
2015,02,24,06,01,1.10
2015,02,24,06,02,1.10
2015,02,24,06,03,1.10
2015,02,24,06,04,1.10
2015,02,24,06,05,1.10
2015,02,24,06,06,1.10
2015,02,24,06,07,1.10
2015,02,24,06,08,1.20
2015,02,24,06,09,1.20
2015,02,24,06,10,1.20
2015,02,24,06,11,1.20
2015,02,24,06,12,1.20
2015,02,24,06,13,1.20
2015,02,24,06,14,1.20
2015,02,24,06,15,1.20
2015,02,24,06,16,1.30
2015,02,24,06,17,1.30
2015,02,24,06,18,1.40
2015,02,24,06,19,1.50
2015,02,24,06,20,1.50
2015,02,24,06,21,1.60
2015,02,24,06,22,1.60
2015,02,24,06,23,1.60
2015,02,24,06,24,1.70
2015,02,24,06,25,1.70
2015,02,24,06,26,1.70
2015,02,24,06,27,1.70
2015,02,24,06,28,1.80
2015,02,24,06,29,1.80
2015,02,24,06,30,1.80
2015,02,24,06,31,1.80
2015,02,24,06,32,1.80
2015,02,24,06,33,1.80
2015,02,24,06,34,1.80
2015,02,24,06,35,1.80
2015,02,24,06,36,1.80
2015,02,24,06,37,1.80
2015,02,24,06,38,1.80
2015,02,24,06,39,1.80
2015,02,24,06,40,1.80
2015,02,24,06,41,1.80
2015,02,24,06,42,1.80
2015,02,24,06,43,1.80
2015,02,24,06,44,1.70
2015,02,24,06,45,1.70
2015,02,24,06,46,1.70
2015,02,24,06,47,1.70
2015,02,24,06,48,1.70
2015,02,24,06,49,1.60
2015,02,24,06,50,1.60
2015,02,24,06,51,1.60
2015,02,24,06,52,1.60
2015,02,24,06,53,1.70
2015,02,24,06,54,1.70
2015,02,24,06,55,1.70
2015,02,24,06,56,1.70
2015,02,24,06,57,1.70
2015,02,24,06,58,1.70
2015,02,24,06,59,1.70
2015,02,24,07,00,1.70
2015,02,24,07,01,1.60
2015,02,24,07,02,1.60
2015,02,24,07,03,1.50
2015,02,24,07,04,1.50
2015,02,24,07,05,1.50
2015,02,24,07,06,1.50
2015,02,24,07,07,1.40
2015,02,24,07,08,1.40
2015,02,24,07,09,1.40
2015,02,24,07,10,1.40
2015,02,24,07,11,1.30
2015,02,24,07,12,1.30
2015,02,24,07,13,1.30
2015,02,24,07,14,1.30
2015,02,24,07,15,1.30
2015,02,24,07,16,1.20
2015,02,24,07,17,1.20
2015,02,24,07,18,1.20
2015,02,24,07,19,1.20
2015,02,24,07,20,1.10
2015,02,24,07,21,1.10
2015,02,24,07,22,1.10
2015,02,24,07,23,1.00
2015,02,24,07,24,1.00
2015,02,24,07,25,0.90
2015,02,24,07,26,0.90
2015,02,24,07,27,0.90
2015,02,24,07,28,0.90
2015,02,24,07,29,0.90
2015,02,24,07,30,0.90
2015,02,24,07,31,0.90
2015,02,24,07,32,0.90
2015,02,24,07,33,0.90
2015,02,24,07,34,0.90
2015,02,24,07,35,0.90
2015,02,24,07,36,1.00
2015,02,24,07,37,1.00
2015,02,24,07,38,1.10
2015,02,24,07,39,1.10
2015,02,24,07,40,1.10
2015,02,24,07,41,1.10
2015,02,24,07,42,1.10
2015,02,24,07,43,1.20
2015,02,24,07,44,1.20
2015,02,24,07,45,1.20
2015,02,24,07,46,1.20
2015,02,24,07,47,1.20
2015,02,24,07,48,1.20
2015,02,24,07,49,1.30
2015,02,24,07,50,1.30
2015,02,24,07,51,1.30
2015,02,24,07,52,1.30
2015,02,24,07,53,1.40
2015,02,24,07,54,1.40
2015,02,24,07,55,1.40
2015,02,24,07,56,1.50
2015,02,24,07,57,1.50
2015,02,24,07,58,1.60
2015,02,24,07,59,1.60
2015,02,24,08,00,1.70
2015,02,24,08,01,1.80
2015,02,24,08,02,1.80
2015,02,24,08,03,1.90
2015,02,24,08,04,2.00
2015,02,24,08,05,2.00
2015,02,24,08,06,2.10
2015,02,24,08,07,2.30
2015,02,24,08,08,2.40
2015,02,24,08,09,2.50
2015,02,24,08,10,2.60
2015,02,24,08,11,2.70
2015,02,24,08,12,2.80
2015,02,24,08,13,2.90
2015,02,24,08,14,3.10
2015,02,24,08,15,3.20
2015,02,24,08,16,3.40
2015,02,24,08,17,3.50
2015,02,24,08,18,3.70
2015,02,24,08,19,3.80
2015,02,24,08,20,3.90
2015,02,24,08,21,4.00
2015,02,24,08,22,4.10
2015,02,24,08,23,4.20
2015,02,24,08,24,4.20
2015,02,24,08,25,4.30
2015,02,24,08,26,4.40
2015,02,24,08,27,4.50
2015,02,24,08,28,4.50
2015,02,24,08,29,4.60
2015,02,24,08,30,4.70
2015,02,24,08,31,4.80
2015,02,24,08,32,4.80
2015,02,24,08,33,4.80
2015,02,24,08,34,4.90
2015,02,24,08,35,4.90
2015,02,24,08,36,5.00
2015,02,24,08,37,5.00
2015,02,24,08,38,5.10
2015,02,24,08,39,5.10
2015,02,24,08,40,5.20
2015,02,24,08,41,5.20
2015,02,24,08,42,5.20
2015,02,24,08,43,5.20
2015,02,24,08,44,5.20
2015,02,24,08,45,5.20
2015,02,24,08,46,5.30
2015,02,24,08,47,5.30
2015,02,24,08,48,5.30
2015,02,24,08,49,5.40
2015,02,24,08,50,5.40
2015,02,24,08,51,5.50
2015,02,24,08,52,5.50
2015,02,24,08,53,5.60
2015,02,24,08,54,5.70
2015,02,24,08,55,5.80
2015,02,24,08,56,5.80
2015,02,24,08,57,5.90
2015,02,24,08,58,5.90
2015,02,24,08,59,6.00
2015,02,24,09,00,6.10
2015,02,24,09,01,6.10
2015,02,24,09,02,6.10
2015,02,24,09,03,6.20
2015,02,24,09,04,6.20
2015,02,24,09,05,6.20
2015,02,24,09,06,6.20
2015,02,24,09,07,6.20
2015,02,24,09,08,6.20
2015,02,24,09,09,6.20
2015,02,24,09,10,6.20
2015,02,24,09,11,6.20
2015,02,24,09,12,6.20
2015,02,24,09,13,6.20
2015,02,24,09,14,6.20
2015,02,24,09,15,6.20
2015,02,24,09,16,6.20
2015,02,24,09,17,6.20
2015,02,24,09,18,6.30
2015,02,24,09,19,6.30
2015,02,24,09,20,6.30
2015,02,24,09,21,6.30
2015,02,24,09,22,6.30
2015,02,24,09,23,6.30
2015,02,24,09,24,6.30
2015,02,24,09,25,6.30
2015,02,24,09,26,6.30
2015,02,24,09,27,6.30
2015,02,24,09,28,6.30
2015,02,24,09,29,6.30
2015,02,24,09,30,6.30
2015,02,24,09,31,6.40
2015,02,24,09,32,6.40
2015,02,24,09,33,6.50
2015,02,24,09,34,6.60
2015,02,24,09,35,6.60
2015,02,24,09,36,6.70
2015,02,24,09,37,6.70
2015,02,24,09,38,6.80
2015,02,24,09,39,6.80
2015,02,24,09,40,6.90
2015,02,24,09,41,7.00
2015,02,24,09,42,7.00
2015,02,24,09,43,7.10
2015,02,24,09,44,7.20
2015,02,24,09,45,7.30
2015,02,24,09,46,7.40
2015,02,24,09,47,7.50
2015,02,24,09,48,7.50
2015,02,24,09,49,7.60
2015,02,24,09,50,7.60
2015,02,24,09,51,7.70
2015,02,24,09,52,7.80
2015,02,24,09,53,7.80
2015,02,24,09,54,7.90
2015,02,24,09,55,7.90
2015,02,24,09,56,8.00
2015,02,24,09,57,8.00
2015,02,24,09,58,8.10
2015,02,24,09,59,8.10
2015,02,24,10,00,8.20
2015,02,24,10,01,8.20
2015,02,24,10,02,8.20
2015,02,24,10,03,8.20
2015,02,24,10,04,8.30
2015,02,24,10,05,8.30
2015,02,24,10,06,8.40
2015,02,24,10,07,8.50
2015,02,24,10,08,8.60
2015,02,24,10,09,8.60
2015,02,24,10,10,8.70
2015,02,24,10,11,8.70
2015,02,24,10,12,8.80
2015,02,24,10,13,8.90
2015,02,24,10,14,8.90
2015,02,24,10,15,8.90
2015,02,24,10,16,8.90
2015,02,24,10,17,8.90
2015,02,24,10,18,8.80
2015,02,24,10,19,8.80
2015,02,24,10,20,8.80
2015,02,24,10,21,8.80
2015,02,24,10,22,8.80
2015,02,24,10,23,8.80
2015,02,24,10,24,8.80
2015,02,24,10,25,8.90
2015,02,24,10,26,8.90
2015,02,24,10,27,8.90
2015,02,24,10,28,9.00
2015,02,24,10,29,9.00
2015,02,24,10,30,9.10
2015,02,24,10,31,9.10
2015,02,24,10,32,9.20
2015,02,24,10,33,9.20
2015,02,24,10,34,9.20
2015,02,24,10,35,9.20
2015,02,24,10,36,9.20
2015,02,24,10,37,9.20
2015,02,24,10,38,9.20
2015,02,24,10,39,9.30
2015,02,24,10,40,9.30
2015,02,24,10,41,9.30
2015,02,24,10,42,9.30
2015,02,24,10,43,9.30
2015,02,24,10,44,9.30
2015,02,24,10,45,9.30
2015,02,24,10,46,9.30
2015,02,24,10,47,9.40
2015,02,24,10,48,9.40
2015,02,24,10,49,9.40
2015,02,24,10,50,9.50
2015,02,24,10,51,9.50
2015,02,24,10,52,9.60
2015,02,24,10,53,9.60
2015,02,24,10,54,9.60
2015,02,24,10,55,9.60
2015,02,24,10,56,9.60
2015,02,24,10,57,9.60
2015,02,24,10,58,9.60
2015,02,24,10,59,9.60
2015,02,24,11,00,9.60
2015,02,24,11,01,9.60
2015,02,24,11,02,9.50
2015,02,24,11,03,9.50
2015,02,24,11,04,9.40
2015,02,24,11,05,9.20
2015,02,24,11,06,9.10
2015,02,24,11,07,8.90
2015,02,24,11,08,8.80
2015,02,24,11,09,8.70
2015,02,24,11,10,8.60
2015,02,24,11,11,8.50
2015,02,24,11,12,8.40
2015,02,24,11,13,8.30
2015,02,24,11,14,8.30
2015,02,24,11,15,8.20
2015,02,24,11,16,8.30
2015,02,24,11,17,8.30
2015,02,24,11,18,8.30
2015,02,24,11,19,8.30
2015,02,24,11,20,8.30
2015,02,24,11,21,8.30
2015,02,24,11,22,8.30
2015,02,24,11,23,8.30
2015,02,24,11,24,8.30
2015,02,24,11,25,8.30
2015,02,24,11,26,8.30
2015,02,24,11,27,8.30
2015,02,24,11,28,8.40
2015,02,24,11,29,8.40
2015,02,24,11,30,8.40
2015,02,24,11,31,8.40
2015,02,24,11,32,8.40
2015,02,24,11,33,8.40
2015,02,24,11,34,8.40
2015,02,24,11,35,8.40
2015,02,24,11,36,8.40
2015,02,24,11,37,8.40
2015,02,24,11,38,8.40
2015,02,24,11,39,8.40
2015,02,24,11,40,8.40
2015,02,24,11,41,8.40
2015,02,24,11,42,8.40
2015,02,24,11,43,8.40
2015,02,24,11,44,8.40
2015,02,24,11,45,8.40
2015,02,24,11,46,8.40
2015,02,24,11,47,8.40
2015,02,24,11,48,8.40
2015,02,24,11,49,8.40
2015,02,24,11,50,8.40
2015,02,24,11,51,8.40
2015,02,24,11,52,8.40
2015,02,24,11,53,8.40
2015,02,24,11,54,8.30
2015,02,24,11,55,8.30
2015,02,24,11,56,8.40
2015,02,24,11,57,8.40
2015,02,24,11,58,8.40
2015,02,24,11,59,8.40
2015,02,24,12,00,8.50
2015,02,24,12,01,8.50
2015,02,24,12,02,8.40
2015,02,24,12,03,8.50
2015,02,24,12,04,8.50
2015,02,24,12,05,8.60
2015,02,24,12,06,8.60
2015,02,24,12,07,8.60
2015,02,24,12,08,8.60
2015,02,24,12,09,8.60
2015,02,24,12,10,8.60
2015,02,24,12,11,8.60
2015,02,24,12,12,8.70
2015,02,24,12,13,8.70
2015,02,24,12,14,8.70
2015,02,24,12,15,8.70
2015,02,24,12,16,8.70
2015,02,24,12,17,8.80
2015,02,24,12,18,8.80
2015,02,24,12,19,8.80
2015,02,24,12,20,8.90
2015,02,24,12,21,8.90
2015,02,24,12,22,9.00
2015,02,24,12,23,9.10
2015,02,24,12,24,9.10
2015,02,24,12,25,9.20
2015,02,24,12,26,9.20
2015,02,24,12,27,9.30
2015,02,24,12,28,9.30
2015,02,24,12,29,9.40
2015,02,24,12,30,9.40
2015,02,24,12,31,9.50
2015,02,24,12,32,9.50
2015,02,24,12,33,9.60
2015,02,24,12,34,9.60
2015,02,24,12,35,9.70
2015,02,24,12,36,9.70
2015,02,24,12,37,9.80
2015,02,24,12,38,9.80
2015,02,24,12,39,9.90
2015,02,24,12,40,9.90
2015,02,24,12,41,9.90
2015,02,24,12,42,10.00
2015,02,24,12,43,10.00
2015,02,24,12,44,10.10
2015,02,24,12,45,10.20
2015,02,24,12,46,10.20
2015,02,24,12,47,10.30
2015,02,24,12,48,10.40
2015,02,24,12,49,10.50
2015,02,24,12,50,10.60
2015,02,24,12,51,10.70
2015,02,24,12,52,10.70
2015,02,24,12,53,10.80
2015,02,24,12,54,10.90
2015,02,24,12,55,10.90
2015,02,24,12,56,10.90
2015,02,24,12,57,11.00
2015,02,24,12,58,11.00
2015,02,24,12,59,11.10
2015,02,24,13,00,11.00
2015,02,24,13,01,11.00
2015,02,24,13,02,11.00
2015,02,24,13,03,11.00
2015,02,24,13,04,11.10
2015,02,24,13,05,11.10
2015,02,24,13,06,11.00
2015,02,24,13,07,11.00
2015,02,24,13,08,10.90
2015,02,24,13,09,10.90
2015,02,24,13,10,10.80
2015,02,24,13,11,10.70
2015,02,24,13,12,10.60
2015,02,24,13,13,10.40
2015,02,24,13,14,10.30
2015,02,24,13,15,10.20
2015,02,24,13,16,10.10
2015,02,24,13,17,10.10
2015,02,24,13,18,10.10
2015,02,24,13,19,10.20
2015,02,24,13,20,10.20
2015,02,24,13,21,10.20
2015,02,24,13,22,10.10
2015,02,24,13,23,9.90
2015,02,24,13,24,9.80
2015,02,24,13,25,9.70
2015,02,24,13,26,9.60
2015,02,24,13,27,9.50
2015,02,24,13,28,9.50
2015,02,24,13,29,9.50
2015,02,24,13,30,9.50
2015,02,24,13,31,9.50
2015,02,24,13,32,9.50
2015,02,24,13,33,9.60
2015,02,24,13,34,9.60
2015,02,24,13,35,9.60
2015,02,24,13,36,9.70
2015,02,24,13,37,9.70
2015,02,24,13,38,9.70
2015,02,24,13,39,9.60
2015,02,24,13,40,9.60
2015,02,24,13,41,9.60
2015,02,24,13,42,9.60
2015,02,24,13,43,9.60
2015,02,24,13,44,9.70
2015,02,24,13,45,9.70
2015,02,24,13,46,9.70
2015,02,24,13,47,9.70
2015,02,24,13,48,9.70
2015,02,24,13,49,9.60
2015,02,24,13,50,9.60
2015,02,24,13,51,9.50
2015,02,24,13,52,9.50
2015,02,24,13,53,9.50
2015,02,24,13,54,9.40
2015,02,24,13,55,9.40
2015,02,24,13,56,9.40
2015,02,24,13,57,9.40
2015,02,24,13,58,9.40
2015,02,24,13,59,9.50
2015,02,24,14,00,9.50
2015,02,24,14,01,9.50
2015,02,24,14,02,9.40
2015,02,24,14,03,9.40
2015,02,24,14,04,9.40
2015,02,24,14,05,9.40
2015,02,24,14,06,9.30
2015,02,24,14,07,9.40
2015,02,24,14,08,9.40
